Weather History for Charlottetown, PE

Change the Weather History Date:

Sunday, September 15, 2013

  Actual Average Record
Temperature  
Mean Temperature 59 °F -  
Max Temperature 65 °F 59 °F 80 °F (2003)
Min Temperature 53 °F 44 °F 44 °F (2001)
Degree Days  
Heating Degree Days 6    
Growing Degree Days 9 (Base 50)    
Moisture  
Dew Point 53 °F    
Average Humidity 80    
Maximum Humidity 94    
Minimum Humidity 57    
Precipitation  
Precipitation 0.00 in 0.13 in - ()
Sea Level Pressure  
Sea Level Pressure 29.95 in    
Wind  
Wind Speed 8 mph ()    
Max Wind Speed 14 mph    
Max Gust Speed 20 mph    
Visibility 15.0 miles    
Events      
Averages and records for this station are not official NWS values.
T = Trace of Precipitation, MM = Missing Value Source: Averaged Metar Reports

Daily Weather History Graph

Daily Weather History Graph

Search for Another Location

Airport:

Trip Planner

Search our weather history database for the weather conditions in past years. The results will help you decide how hot, cold, wet, or windy it might be!

Date:

Astronomy

Sep. 15, 2013 Rise Set
Actual Time 6:50 AM ADT 7:23 PM ADT
Civil Twilight 6:20 AM ADT 7:53 PM ADT
Nautical Twilight 5:44 AM ADT 8:29 PM ADT
Astronomical Twilight 5:07 AM ADT 9:06 PM ADT
Moon 4:57 PM ADT (9/15) 2:11 AM ADT (9/15)
Length of Visible Light 13h 33m
Length of Day
12h 32m
Waxing Gibbous, 81% of the Moon is Illuminated
Sep 15
Waxing Gibbous
Sep 19
Full
Sep 27
Last Quarter
Oct 4
New
Oct 11
First Quarter

Hourly Weather History & Observations

Time (ADT) Temp. Dew Point Humidity Pressure Visibility Wind Dir Wind Speed Gust Speed Precip Events Conditions
12:00 AM 60.8 °F 59.0 °F 94% 29.88 in 15.0 mi WSW 8.1 mph - N/A   Mostly Cloudy
1:00 AM 60.8 °F 59.0 °F 94% 29.88 in 15.0 mi West 6.9 mph - N/A   Mostly Cloudy
2:00 AM 60.8 °F 59.0 °F 94% 29.88 in 15.0 mi WSW 8.1 mph - N/A   Scattered Clouds
3:00 AM 59 °F 57 °F 92% 29.90 in 15 mi West 6.9 mph - -   Partly Cloudy
3:00 AM 59.0 °F 57.2 °F 94% 29.89 in 15.0 mi West 6.9 mph - N/A   Scattered Clouds
4:00 AM 57.2 °F 55.4 °F 94% 29.91 in 15.0 mi West 8.1 mph - N/A   Partly Cloudy
5:00 AM 55.4 °F 53.6 °F 94% 29.93 in 15.0 mi West 8.1 mph - N/A   Mostly Cloudy
5:34 AM 55.4 °F 51.8 °F 88% 29.94 in 15.0 mi West 11.5 mph - N/A   Mostly Cloudy
6:00 AM 55.4 °F 51.8 °F 88% 29.96 in 15.0 mi West 11.5 mph 19.6 mph N/A   Mostly Cloudy
7:00 AM 53.6 °F 50.0 °F 88% 29.98 in 15.0 mi West 12.7 mph 18.4 mph N/A   Mostly Cloudy
8:00 AM 53.6 °F 50.0 °F 88% 29.99 in 15.0 mi WNW 9.2 mph - N/A   Mostly Cloudy
9:00 AM 55 °F 50 °F 79% 29.99 in 15 mi West 8.1 mph - -   Scattered Clouds
9:00 AM 55.4 °F 50.0 °F 82% 29.99 in 15.0 mi WSW 9.2 mph - N/A   Scattered Clouds
10:00 AM 59.0 °F 48.2 °F 67% 30.00 in 15.0 mi WNW 9.2 mph - N/A   Scattered Clouds
11:00 AM 60.8 °F 51.8 °F 72% 29.99 in 15.0 mi WSW 13.8 mph - N/A   Scattered Clouds
12:00 PM 62.6 °F 51.8 °F 68% 29.99 in 15.0 mi WSW 12.7 mph - N/A   Scattered Clouds
1:00 PM 62.6 °F 50.0 °F 63% 29.99 in 15.0 mi WSW 13.8 mph - N/A   Mostly Cloudy
2:00 PM 62.6 °F 51.8 °F 68% 29.97 in 15.0 mi West 8.1 mph - N/A   Scattered Clouds
3:00 PM 64 °F 53 °F 57% 29.96 in 15 mi WSW 9.2 mph - -   Scattered Clouds
3:00 PM 64.4 °F 51.8 °F 64% 29.96 in 15.0 mi SW 6.9 mph - N/A   Scattered Clouds
4:00 PM 64.4 °F 51.8 °F 64% 29.96 in 15.0 mi WSW 12.7 mph - N/A   Scattered Clouds
5:00 PM 64.4 °F 51.8 °F 64% 29.95 in 15.0 mi SW 10.4 mph - N/A   Scattered Clouds
6:00 PM 64.4 °F 53.6 °F 68% 29.96 in 15.0 mi WSW 10.4 mph - N/A   Mostly Cloudy
7:00 PM 62.6 °F 53.6 °F 72% 29.96 in 15.0 mi WSW 8.1 mph - N/A   Mostly Cloudy
8:00 PM 59.0 °F 53.6 °F 82% 29.97 in 15.0 mi WSW 8.1 mph - N/A   Scattered Clouds
9:00 PM 58 °F 53 °F 78% 29.98 in 15 mi SW 5.8 mph - -   Clear
9:00 PM 57.2 °F 53.6 °F 88% 29.98 in 15.0 mi SW 5.8 mph - N/A   Scattered Clouds
10:00 PM 57.2 °F 51.8 °F 82% 29.98 in 15.0 mi SW 6.9 mph - N/A   Scattered Clouds
11:00 PM 57.2 °F 51.8 °F 82% 29.97 in 15.0 mi SSW 8.1 mph - N/A   Scattered Clouds